Location: Centerville
(32.8776°N, 96.6203°W)
Time: 00:35:41
(UTC+00:00)

Chandra Rocket (1) - Pass Details

Date: 17 June 2021
Orbit: 357 x 10987 km, 28.4° (Epoch: 01 August)

Event Time Altitude Azimuth Distance (km) Brightness Sun altitude
Exits shadow 09:13:04 30° 202° (SSW) 2,480 4.5 -21.3°
Maximum altitude 09:15:18 34° 174° (S) 1,898 4.1 -21.0°
Drops below altitude 10° 09:19:44 10° 109° (ESE) 2,181 5.1 -20.3°
Sets 09:21:26 0° 97° (E) 2,759 5.9 -20.1°
